Whidbey Island, WA

8:39 AM PDT on June 23, 2017 (GMT -0700)
Whidbey Island Naval Air Station

Weather History for KNUW - November, 2012

Change the Weather History Date:

Friday, November 9, 2012

  Actual Average Record
Temperature  
Mean Temperature 38 °F -  
Max Temperature 46 °F 50 °F 64 °F (2016)
Min Temperature 28 °F 38 °F 28 °F (2012)
Degree Days  
Heating Degree Days 27    
Moisture  
Dew Point 26 °F    
Average Humidity 65    
Maximum Humidity 86    
Minimum Humidity 40    
Precipitation  
Precipitation 0.00 in - - ()
Sea Level Pressure  
Sea Level Pressure 29.92 in    
Wind  
Wind Speed 5 mph (NNE)    
Max Wind Speed 12 mph    
Max Gust Speed -    
Visibility 10 miles    
Events      
Averages and records for this station are not official NWS values.
T = Trace of Precipitation, MM = Missing Value Source: NWS Daily Summary

Daily Weather History Graph

Daily Weather History Graph

Search for Another Location

Airport or City:

Trip Planner

Search our weather history database for the weather conditions in past years. The results will help you decide how hot, cold, wet, or windy it might be!

Date:

Astronomy

Nov. 09, 2012 Rise Set
Actual Time 7:09 AM PST 4:38 PM PST
Civil Twilight 6:36 AM PST 5:12 PM PST
Nautical Twilight 5:58 AM PST 5:49 PM PST
Astronomical Twilight 5:21 AM PST 6:26 PM PST
Moon 1:53 AM PST (11/9) 2:13 PM PST (11/9)
Length of Visible Light 10h 36m
Length of Day
9h 28m
Waning Crescent, 22% of the Moon is Illuminated
Nov 9
Waning Crescent
Nov 13
New
Nov 20
First Quarter
Nov 28
Full
Dec 6
Last Quarter

Hourly Weather History & Observations

Time (PST) Temp. Windchill Dew Point Humidity Pressure Visibility Wind Dir Wind Speed Gust Speed Precip Events Conditions
12:56 AM 34.0 °F 29.8 °F 26.1 °F 73% 29.87 in 10.0 mi North 4.6 mph - N/A   Partly Cloudy
1:56 AM 39.0 °F 32.3 °F 27.0 °F 62% 29.87 in 10.0 mi North 10.4 mph - N/A   Partly Cloudy
2:56 AM 37.9 °F 33.5 °F 25.0 °F 60% 29.87 in 10.0 mi NE 5.8 mph - N/A   Partly Cloudy
3:56 AM 37.9 °F 34.4 °F 25.0 °F 60% 29.88 in 10.0 mi NE 4.6 mph - N/A   Partly Cloudy
4:56 AM 32.0 °F 26.4 °F 24.1 °F 73% 29.88 in 10.0 mi ESE 5.8 mph - N/A   Scattered Clouds
5:56 AM 30.0 °F - 25.0 °F 82% 29.90 in 10.0 mi Calm Calm - N/A   Scattered Clouds
6:56 AM 30.0 °F 26.5 °F 25.0 °F 82% 29.90 in 10.0 mi ESE 3.5 mph - N/A   Scattered Clouds
7:56 AM 30.9 °F - 27.0 °F 85% 29.91 in 10.0 mi Calm Calm - N/A   Scattered Clouds
8:56 AM 36.0 °F 32.1 °F 32.0 °F 86% 29.92 in 10.0 mi SE 4.6 mph - N/A   Partly Cloudy
9:56 AM 41.0 °F 39.0 °F 33.1 °F 73% 29.92 in 10.0 mi ESE 3.5 mph - N/A   Scattered Clouds
10:56 AM 44.1 °F 41.5 °F 30.9 °F 60% 29.93 in 10.0 mi WNW 4.6 mph - N/A   Scattered Clouds
11:56 AM 44.1 °F 40.8 °F 30.0 °F 58% 29.92 in 10.0 mi NW 5.8 mph - N/A   Scattered Clouds
12:56 PM 45.0 °F 41.2 °F 30.0 °F 56% 29.92 in 10.0 mi NW 6.9 mph - N/A   Scattered Clouds
1:56 PM 46.0 °F 43.9 °F 28.0 °F 50% 29.91 in 10.0 mi NW 4.6 mph - N/A   Partly Cloudy
2:56 PM 46.0 °F 40.6 °F 25.0 °F 44% 29.91 in 10.0 mi NNW 11.5 mph - N/A   Partly Cloudy
3:56 PM 45.0 °F 39.3 °F 21.9 °F 40% 29.91 in 10.0 mi North 11.5 mph - N/A   Partly Cloudy
4:56 PM 41.0 °F 37.1 °F 21.0 °F 45% 29.92 in 10.0 mi North 5.8 mph - N/A   Partly Cloudy
5:56 PM 41.0 °F 35.2 °F 24.1 °F 51% 29.93 in 10.0 mi North 9.2 mph - N/A   Partly Cloudy
6:56 PM 37.0 °F 31.6 °F 23.0 °F 57% 29.94 in 10.0 mi North 6.9 mph - N/A   Clear
7:56 PM 30.9 °F 27.5 °F 23.0 °F 72% 29.94 in 10.0 mi NNE 3.5 mph - N/A   Partly Cloudy
8:56 PM 34.0 °F - 24.1 °F 67% 29.96 in 10.0 mi Calm Calm - N/A   Partly Cloudy
9:56 PM 30.9 °F - 21.9 °F 69% 29.96 in 10.0 mi Calm Calm - N/A   Partly Cloudy
10:56 PM 30.9 °F - 24.1 °F 76% 29.97 in 10.0 mi Calm Calm - N/A   Partly Cloudy
11:56 PM 28.0 °F 24.2 °F 23.0 °F 81% 29.99 in 10.0 mi SE 3.5 mph - N/A   Scattered Clouds